Rolla, ND

2:54 AM CST on November 18, 2019 (GMT -0600)
Rolla

Weather History for K06D - October, 2019

Change the Weather History Date:

Monday, October 21, 2019

  Actual Average (WUND) Record (WUND)
Temperature  
Mean Temperature 37 °F -  
Max Temperature 42 °F - - (-1)
Min Temperature 30 °F - - (-1)
Degree Days  
Heating Degree Days 28    
Moisture  
Dew Point 31 °F    
Average Humidity 77    
Maximum Humidity 93    
Minimum Humidity 61    
Precipitation  
Precipitation 0.00 in - - ()
Sea Level Pressure  
Sea Level Pressure 29.87 in    
Wind  
Wind Speed 11 mph (North)    
Max Wind Speed 24 mph    
Max Gust Speed 33 mph    
Visibility 10 miles    
Events      
Averages and records for this station are not official NWS values.
T = Trace of Precipitation, MM = Missing Value Source: NWS Daily Summary

Daily Weather History Graph

Daily Weather History Graph

Search for Another Location

Airport or City:

Astronomy

Oct. 21, 2019 Rise Set
Actual Time 8:07 AM CDT 6:37 PM CDT
Civil Twilight 7:35 AM CDT 7:09 PM CDT
Nautical Twilight 6:58 AM CDT 7:46 PM CDT
Astronomical Twilight 6:22 AM CDT 8:22 PM CDT
Moon No Moon Rise 3:45 PM CDT (10/21)
Length of Visible Light 11h 34m
Length of Day
10h 29m
Waning Gibbous, 48% of the Moon is Illuminated
Oct 21
Waning Gibbous
Oct 27
New
Nov 4
First Quarter
Nov 12
Full
Nov 19
Last Quarter

Hourly Weather History & Observations

Time (CDT) Temp. Windchill Dew Point Humidity Pressure Visibility Wind Dir Wind Speed Gust Speed Precip Events Conditions
12:15 AM 42.8 °F - 35.6 °F 76% 29.88 in 10.0 mi Calm Calm - N/A   Overcast
12:35 AM 42.8 °F - 35.6 °F 76% 29.88 in 10.0 mi Calm Calm - N/A   Overcast
12:55 AM 42.8 °F 39.3 °F 35.6 °F 76% 29.88 in 10.0 mi NNW 5.8 mph - N/A   Overcast
1:15 AM 41.0 °F 37.1 °F 35.6 °F 81% 29.87 in 10.0 mi North 5.8 mph - N/A   Overcast
1:35 AM 41.0 °F 35.8 °F 33.8 °F 76% 29.87 in 10.0 mi NNW 8.1 mph - N/A   Overcast
1:55 AM 41.0 °F 36.4 °F 33.8 °F 76% 29.87 in 10.0 mi NNW 6.9 mph - N/A   Mostly Cloudy
2:15 AM 41.0 °F 34.7 °F 33.8 °F 76% 29.86 in 10.0 mi NNW 10.4 mph - N/A   Mostly Cloudy
2:35 AM 39.2 °F 33.0 °F 32.0 °F 75% 29.86 in 10.0 mi NNW 9.2 mph - N/A   Overcast
2:55 AM 39.2 °F 32.5 °F 32.0 °F 75% 29.85 in 10.0 mi NNW 10.4 mph - N/A   Overcast
3:15 AM 39.2 °F 32.0 °F 32.0 °F 75% 29.85 in 10.0 mi NNW 11.5 mph - N/A   Overcast
3:35 AM 37.4 °F 30.3 °F 32.0 °F 81% 29.85 in 10.0 mi NNW 10.4 mph - N/A   Overcast
3:55 AM 37.4 °F 30.3 °F 30.2 °F 75% 29.85 in 10.0 mi NNW 10.4 mph - N/A   Overcast
4:15 AM 37.4 °F 30.3 °F 30.2 °F 75% 29.86 in 10.0 mi NNW 10.4 mph - N/A   Overcast
4:35 AM 37.4 °F 30.3 °F 30.2 °F 75% 29.86 in 10.0 mi NNW 10.4 mph - N/A   Overcast
4:55 AM 37.4 °F 30.8 °F 30.2 °F 75% 29.86 in 10.0 mi NNW 9.2 mph - N/A   Overcast
5:15 AM 37.4 °F 30.3 °F 30.2 °F 75% 29.87 in 10.0 mi NNW 10.4 mph - N/A   Overcast
5:35 AM 37.4 °F 31.4 °F 30.2 °F 75% 29.87 in 10.0 mi NNW 8.1 mph - N/A   Overcast
5:55 AM 35.6 °F 29.2 °F 32.0 °F 87% 29.87 in 10.0 mi North 8.1 mph - N/A   Overcast
6:15 AM 35.6 °F 29.2 °F 32.0 °F 87% 29.88 in 10.0 mi NNW 8.1 mph - N/A   Overcast
6:35 AM 35.6 °F 29.2 °F 32.0 °F 87% 29.88 in 10.0 mi North 8.1 mph - N/A   Overcast
6:55 AM 35.6 °F 28.0 °F 30.2 °F 81% 29.88 in 10.0 mi NNW 10.4 mph - N/A   Overcast
7:15 AM 35.6 °F 27.5 °F 30.2 °F 81% 29.87 in 10.0 mi NNW 11.5 mph - N/A   Overcast
7:35 AM 35.6 °F 28.0 °F 30.2 °F 81% 29.88 in 10.0 mi NNW 10.4 mph - N/A   Overcast
7:55 AM 35.6 °F 27.1 °F 30.2 °F 81% 29.88 in 10.0 mi NNW 12.7 mph - N/A   Overcast
8:15 AM 33.8 °F 24.3 °F 30.2 °F 87% 29.88 in 10.0 mi NNW 13.8 mph - N/A   Mostly Cloudy
8:35 AM 33.8 °F 23.9 °F 30.2 °F 87% 29.88 in 10.0 mi NNW 15.0 mph - N/A   Scattered Clouds
8:55 AM 33.8 °F 24.3 °F 30.2 °F 87% 29.88 in 10.0 mi NNW 13.8 mph - N/A   Scattered Clouds
9:15 AM 35.6 °F 25.9 °F 32.0 °F 87% 29.89 in 10.0 mi North 16.1 mph - N/A   Overcast
9:35 AM 35.6 °F 27.5 °F 32.0 °F 87% 29.89 in 10.0 mi North 11.5 mph 19.6 mph N/A   Overcast
9:55 AM 35.6 °F 26.6 °F 32.0 °F 87% 29.90 in 10.0 mi North 13.8 mph - N/A   Overcast
10:15 AM 35.6 °F 26.6 °F 33.8 °F 93% 29.90 in 10.0 mi North 13.8 mph 20.7 mph N/A   Scattered Clouds
10:35 AM 37.4 °F 27.8 °F 33.8 °F 87% 29.90 in 10.0 mi North 17.3 mph - N/A   Scattered Clouds
10:55 AM 37.4 °F 27.2 °F 33.8 °F 87% 29.89 in 10.0 mi North 19.6 mph - N/A   Mostly Cloudy
11:15 AM 37.4 °F 27.5 °F 33.8 °F 87% 29.89 in 10.0 mi North 18.4 mph 25.3 mph N/A   Overcast
11:35 AM 39.2 °F 30.2 °F 33.8 °F 81% 29.89 in 10.0 mi NNE 17.3 mph - N/A   Overcast
11:55 AM 39.2 °F 29.6 °F 33.8 °F 81% 29.90 in 10.0 mi North 19.6 mph - N/A   Overcast
12:35 PM 41.0 °F 31.1 °F 33.8 °F 76% 29.89 in 10.0 mi North 23.0 mph - N/A   Overcast
1:15 PM 41.0 °F 32.2 °F 32.0 °F 70% 29.88 in 10.0 mi North 18.4 mph 28.8 mph N/A   Overcast
1:35 PM 41.0 °F 31.6 °F 32.0 °F 70% 29.88 in 10.0 mi North 20.7 mph 28.8 mph N/A   Scattered Clouds
1:55 PM 42.8 °F 34.5 °F 32.0 °F 66% 29.88 in 10.0 mi North 18.4 mph 27.6 mph N/A   Partly Cloudy
2:15 PM 42.8 °F 33.5 °F 32.0 °F 66% 29.87 in 10.0 mi North 23.0 mph - N/A   Scattered Clouds
2:35 PM 42.8 °F 33.3 °F 32.0 °F 66% 29.87 in 10.0 mi North 24.2 mph - N/A   Partly Cloudy
2:55 PM 42.8 °F 33.5 °F 30.2 °F 61% 29.87 in 10.0 mi North 23.0 mph 32.2 mph N/A   Scattered Clouds
3:15 PM 42.8 °F 33.8 °F 32.0 °F 66% 29.86 in 10.0 mi North 21.9 mph - N/A   Mostly Cloudy
3:35 PM 42.8 °F 33.5 °F 30.2 °F 61% 29.86 in 10.0 mi North 23.0 mph 31.1 mph N/A   Mostly Cloudy
3:55 PM 42.8 °F 33.5 °F 30.2 °F 61% 29.87 in 10.0 mi North 23.0 mph 33.4 mph N/A   Overcast
4:15 PM 41.0 °F 30.9 °F 28.4 °F 61% 29.87 in 10.0 mi North 24.2 mph 31.1 mph N/A   Mostly Cloudy
4:35 PM 41.0 °F 31.9 °F 28.4 °F 61% 29.87 in 10.0 mi North 19.6 mph 27.6 mph N/A   Partly Cloudy
4:55 PM 41.0 °F 31.1 °F 28.4 °F 61% 29.88 in 10.0 mi North 23.0 mph 32.2 mph N/A   Clear
5:15 PM 41.0 °F 31.6 °F 28.4 °F 61% 29.87 in 10.0 mi North 20.7 mph 28.8 mph N/A   Clear
5:35 PM 39.2 °F 30.2 °F 28.4 °F 65% 29.88 in 10.0 mi North 17.3 mph - N/A   Clear
5:55 PM 41.0 °F 31.6 °F 28.4 °F 61% 29.88 in 10.0 mi North 20.7 mph 26.5 mph N/A   Clear
6:15 PM 39.2 °F 30.5 °F 28.4 °F 65% 29.88 in 10.0 mi North 16.1 mph 23.0 mph N/A   Clear
6:35 PM 37.4 °F 28.2 °F 28.4 °F 70% 29.88 in 10.0 mi North 16.1 mph - N/A   Clear
6:55 PM 37.4 °F 28.2 °F 28.4 °F 70% 29.88 in 10.0 mi North 16.1 mph - N/A   Clear
7:15 PM 35.6 °F 26.6 °F 28.4 °F 75% 29.88 in 10.0 mi North 13.8 mph - N/A   Clear
7:35 PM 35.6 °F 25.9 °F 28.4 °F 75% 29.88 in 10.0 mi North 16.1 mph - N/A   Clear
7:55 PM 35.6 °F 25.9 °F 28.4 °F 75% 29.89 in 10.0 mi North 16.1 mph - N/A   Clear
8:15 PM 35.6 °F 25.5 °F 28.4 °F 75% 29.89 in 10.0 mi North 17.3 mph - N/A   Clear
8:35 PM 35.6 °F 25.5 °F 28.4 °F 75% 29.89 in 10.0 mi North 17.3 mph - N/A   Clear
8:55 PM 33.8 °F 23.5 °F 28.4 °F 81% 29.88 in 10.0 mi North 16.1 mph - N/A   Clear
9:15 PM 33.8 °F 22.5 °F 28.4 °F 81% 29.88 in 10.0 mi North 19.6 mph - N/A   Clear
9:35 PM 33.8 °F 23.5 °F 28.4 °F 81% 29.87 in 10.0 mi North 16.1 mph 25.3 mph N/A   Clear
9:55 PM 33.8 °F 22.8 °F 28.4 °F 81% 29.87 in 10.0 mi North 18.4 mph 24.2 mph N/A   Clear
10:15 PM 33.8 °F 23.2 °F 28.4 °F 81% 29.86 in 10.0 mi North 17.3 mph - N/A   Clear
10:35 PM 32.0 °F 20.8 °F 28.4 °F 87% 29.86 in 10.0 mi North 17.3 mph - N/A   Clear
10:55 PM 32.0 °F 19.8 °F 28.4 °F 87% 29.85 in 10.0 mi North 20.7 mph - N/A   Clear
11:15 PM 32.0 °F 19.8 °F 28.4 °F 87% 29.85 in 10.0 mi North 20.7 mph 28.8 mph N/A   Clear
11:35 PM 32.0 °F 20.1 °F 28.4 °F 87% 29.85 in 10.0 mi NNW 19.6 mph 26.5 mph N/A   Clear
11:55 PM 30.2 °F 18.5 °F 28.4 °F 93% 29.85 in 10.0 mi NNW 17.3 mph 24.2 mph N/A   Clear